Flag for U.S.A. Weather past 2 weeks in Canton, Ohio, U.S.A.

Now
68 °F

Clear.


Feels Like: 68 °F
Forecast: 67 / 88 °F
Wind: No wind

Location: Akron-Canton Regional Airport

Current Time: Jul 22, 2014 at 4:19:50 AM

Latest Report: Jul 22, 2014 at 3:51 AM


Visibility: 8 mi

Pressure: 30.10 "Hg

Humidity: 82%

Dew point: 62 °F

Location of CantonLocation

Historic Weather in Canton — Graph

°F

Canton temperature yesterday

Maximum temperature yesterday: 87 °F (at 5:51 PM)
Minimum temperature yesterday: 64 °F (at 4:51 AM)
Average temperature yesterday: 75 °F

Past Weeks' High & Low Weather Summary

 TemperatureHumidityPressure
High87 °F (Jul 21, 5:51 PM)94% (Jul 21, 4:51 AM)30.25 "Hg (Jul 21, 4:51 AM)
Low55 °F (Jul 16, 5:51 AM)35% (Jul 9, 3:51 PM)29.63 "Hg (Jul 8, 2:51 PM)
Average71 °F68%30.00 "Hg
* Reported Jul 7 2:51 AM — Jul 22 2:51 AM, Canton, Weather by CustomWeather, © 2014

Note: Actual official high and low records may vary slightly from our data, if they occured in-between our weather recording intervals... More about our weather records

Advertising

Canton weather history for previous 24 hours

 ConditionsComfort  
Time TempWeatherWind HumidityBarometerVisibility
2:51 AM
Jul 22
70 °FClear.5 mph79%30.10 "Hg9 mi
1:51 AM68 °FPassing clouds.5 mph78%30.12 "Hg10 mi
12:51 AM70 °FPassing clouds.3 mph76%30.12 "Hg10 mi
11:51 PM
Jul 21
71 °FPassing clouds.5 mph73%30.12 "Hg10 mi
10:51 PM72 °FPassing clouds.6 mph68%30.12 "Hg10 mi
9:51 PM73 °FBroken clouds.7 mph69%30.12 "Hg10 mi
8:51 PM76 °FBroken clouds.10 mph64%30.11 "Hg10 mi
7:51 PM82 °FScattered clouds.3 mph51%30.09 "Hg10 mi
6:51 PM84 °FScattered clouds.3 mph48%30.09 "Hg10 mi
5:51 PM87 °FPartly sunny.No wind40%30.09 "Hg10 mi
4:51 PM84 °FPartly sunny.3 mph46%30.10 "Hg10 mi
3:51 PM83 °FPartly sunny.No wind50%30.10 "Hg10 mi
2:51 PM84 °FPartly sunny.3 mph46%30.12 "Hg10 mi
1:51 PM82 °FPartly sunny.No wind51%30.13 "Hg10 mi
12:51 PM81 °FPartly sunny.No wind51%30.13 "Hg10 mi
11:51 AM80 °FScattered clouds.No wind54%30.13 "Hg10 mi
10:51 AM78 °FScattered clouds.3 mph60%30.14 "Hg10 mi
9:51 AM77 °FScattered clouds.No wind64%30.14 "Hg10 mi
8:51 AM73 °FScattered clouds.5 mph76%30.15 "Hg8 mi
7:51 AM70 °FScattered clouds.3 mph84%30.12 "Hg6 mi
6:51 AM65 °FFog.No wind91%30.11 "Hg4 mi
5:51 AM66 °FFog.No wind87%30.10 "Hg6 mi
4:51 AM64 °FFog.No wind94%30.08 "Hg4 mi
Weather by CustomWeather, © 2014

See weather overviewHow to use our weather pages